User: anonymous   Login
Location: Unspecified
(0.0000°N, 0.0000°E)
Time: 19:29:28
(UTC+00:00)
Language:

STARLINK-3653 - Orbit

View from above orbital plane
View from above orbital plane
View from above satellite
View from above satellite

Ground track
Ground track

The orbit is defined by the following mean orbital elements,

1 52000U          26145.38939777 +.00000000 +00000-0 +11671-3 0 00000
2 52000  53.2132  34.7125 0001430  92.2282 267.8874 15.08834171    00
Epoch (UTC): 25 May 2026 09:20:43
Eccentricity: 0.0001430
inclination: 53.2132°
perigee height: 539 km
apogee height: 541 km
right ascension of ascending node: 34.7125°
argument of perigee: 92.2282°
revolutions per day: 15.08834171
mean anomaly at epoch: 267.8874°

The dashed part of the orbit path shows where the satellite is in the earth's shadow,  

DLR